Weather in Shalobolino

Russia / Krasnoyarsk Krai     53°56′23″N   92°17′04″E
temp.,
°C
wind,
m/s
gust,
m/s
humid.,
%
clouds,
%
prec.,
mm/h
press.,
hPa
HPBL,
m
12 may, wed
wed1201:00+9nne3356100 0.0 101339
04:00+8n2262100 0.0 101324
07:00+9nne1259100 0.0 1014117
10:00+14ene3543100 0.0 1013770
13:00+18e2431100 0.0 10122034
16:00+19nne3425100 0.0 10102854
19:00+17nne5837100 0.0 1011352
22:00+11ne36530 0.0 1013150
13 may, thu
thu1301:00+8n23580 0.0 101434
04:00+6nnw22620 0.0 101411
07:00+7nne11550 0.0 1015156
10:00+12n33330 0.0 1015918
13:00+15nnw33250 0.0 10141526
16:00+17nnw22203 0.0 10121847
19:00+17wsw01265 0.0 1012268
22:00+11ssw11335 0.0 101210
14 may, fri
fri1401:00+9sse11385 0.0 101210
04:00+7ese114749 0.0 101210
07:00+9ese125188 0.0 1013110
10:00+14sse34405 0.0 1011736
13:00+18sw4641100 0.0 10092110
16:00+9nnw81374100 2.9 1013882
19:00+9nnw71077100 5.9 10161049
22:00+6nnw6106751 0.1 1021949
15 may, sat
sat1501:00+3sw22725 0.1 102324
04:00+2ssw23795 0.0 102354
07:00+5sw3775100 0.0 1024324
10:00+8w5760100 0.0 10241270
13:00+9sw5764100 0.2 1023996
16:00+9e1170100 0.4 102233
19:00+10s3775100 0.8 1022271
22:00+10sw51074100 0.0 1022275
16 may, sun
sun1601:00+10sw41078100 0.0 1020383
04:00+10ssw3878100 0.2 1019231
07:00+11s3877100 0.3 1019290
10:00+12ssw4978100 0.3 1019373
13:00+13ssw41082100 0.6 1017565
16:00+15s2773100 0.4 1015372
19:00+14ene228384 0.6 101484
22:00+11ene2195100 0.3 101522